Regional Weather Roundup
Issued by NWS

Home | Current Version | Previous Version | Text Only | Print | Product List | Glossary Off
Versions: 1 2 3 4 5 6 7 8 9 10 11 12 13 14 15 16 17 18 19 20 21 22 23 24 25 26 27 28 29 30 31 32 33 34 35 36 37 38 39 40 41 42 43 44 45 46 47 48 49 50

000
ASUS43 KFSD 052202
RWRSD

WEATHER ROUNDUP FOR SOUTH DAKOTA
NATIONAL WEATHER SERVICE SIOUX FALLS SD
400 PM CST FRI FEB 05 2016

NOTE: "FAIR" INDICATES FEW OR NO CLOUDS BELOW 12,000 FEET WITH NO
SIGNIFICANT WEATHER AND/OR OBSTRUCTIONS TO VISIBILITY.


SDZ001>005-009-010-012>017-052300-
NORTHWEST AND NORTH CENTRAL SOUTH DAKOTA

CITY           SKY/WX    TMP DP  RH WIND       PRES   REMARKS
BUFFALO          N/A     43  21  41 W20       30.09S
FAITH            N/A     40  23  50 W13       30.15F
MOBRIDGE       SUNNY     42  22  44 NW10      30.14S
$$

SDZ012>016-024>037-041>051-057-063-072>074-052300-
SOUTHWEST AND SOUTH CENTRAL SOUTH DAKOTA

CITY           SKY/WX    TMP DP  RH WIND       PRES   REMARKS
RAPID CTY ARPT SUNNY     41  22  46 N14       30.18F
PIERRE         SUNNY     40  25  55 NW12      30.18S
CUSTER         SUNNY     33   9  36 W17G25    30.16R WCI  22
ELLSWORTH AFB  SUNNY     40  21  45 N13       30.18S
PHILIP         PTSUNNY   41  25  53 NW12      30.20S
PINE RIDGE     SUNNY     39  25  57 NW9       30.22S
WINNER         CLOUDY    36  30  79 NW13      30.20S
$$

SDZ004>011-016>023-039-040-052300-
NORTHEAST SOUTH DAKOTA

CITY           SKY/WX    TMP DP  RH WIND       PRES   REMARKS
ABERDEEN       SUNNY     41  20  43 N15       30.16R
WATERTOWN      MOSUNNY   29  22  75 W8        30.12R WCI  21
BROOKINGS      FLURRIES  29  24  82 NW9       30.13R WCI  20
SISSETON         N/A     34  25  69 NW10      30.14R WCI  26
$$

SDZ017-020-022-023-036>040-048>070-052300-
SOUTHEAST SOUTH DAKOTA

CITY           SKY/WX    TMP DP  RH WIND       PRES   REMARKS
SIOUX FALLS    CLOUDY    30  25  81 SW6       30.16R WCI  24
HURON          CLOUDY    33  30  88 NW8       30.17R WCI  26
MITCHELL       CLOUDY    33  29  85 NW9       30.18R WCI  25
YANKTON        CLOUDY    36  28  75 NW6       30.17R
$$

ABBREVIATIONS USED IN REMARKS
   TC - TEMPERATURE IN CELSIUS
  WCI - WIND CHILL INDEX
   HX - HEAT INDEX
  VSB - VISIBILITY




USA.gov is the U.S. government's official web portal to all federal, state and local government web resources and services.